2024/02/14 00:00:00,10.6, 0.5
2024/02/14 00:10:00,10.6, 0.4
2024/02/14 00:20:00,10.6, 0.6
2024/02/14 00:30:00,10.7, 0.5
2024/02/14 00:40:00,10.7, 0.5
2024/02/14 00:50:00,10.7, 0.7
2024/02/14 01:00:00,10.6, 0.6
2024/02/14 01:10:00,10.6, 0.6
2024/02/14 01:20:00,10.6, 0.6
2024/02/14 01:30:00,10.6, 0.7
2024/02/14 01:40:00,10.6, 0.8
2024/02/14 01:50:00,10.6, 1.2
2024/02/14 02:00:00,10.5, 0.5
2024/02/14 02:10:00,10.5, 0.6
2024/02/14 02:20:00,10.6, 0.7
2024/02/14 02:30:00,10.6, 1.1
2024/02/14 02:40:00,10.5, 0.9
2024/02/14 02:50:00,10.6, 0.8
2024/02/14 03:00:00,10.5, 0.7
2024/02/14 03:10:00,10.5, 0.6
2024/02/14 03:20:00,10.5, 0.9
2024/02/14 03:30:00,10.5, 0.8
2024/02/14 03:40:00,10.6, 0.9
2024/02/14 03:50:00,10.6, 0.9
2024/02/14 04:00:00,10.6, 0.7
2024/02/14 04:10:00,10.5, 0.8
2024/02/14 04:20:00,10.6, 0.8
2024/02/14 04:30:00,10.6, 0.9
2024/02/14 04:40:00,10.6, 0.7
2024/02/14 04:50:00,10.6, 0.6
2024/02/14 05:00:00,10.6, 0.7
2024/02/14 05:10:00,10.6, 0.5
2024/02/14 05:20:00,10.6, 0.7
2024/02/14 05:30:00,10.6, 0.8
2024/02/14 05:40:00,10.6, 0.6
2024/02/14 05:50:00,10.6, 0.5
2024/02/14 06:00:00,10.6, 0.2
2024/02/14 06:10:00,10.6, 0.5
2024/02/14 06:20:00,10.6, 0.4
2024/02/14 06:30:00,10.6, 0.5
2024/02/14 06:40:00,10.6, 0.4
2024/02/14 06:50:00,10.6, 0.7
2024/02/14 07:00:00,10.6, 0.7
2024/02/14 07:10:00,10.7, 0.7
2024/02/14 07:20:00,10.7, 0.8
2024/02/14 07:30:00,10.7, 1.0
2024/02/14 07:40:00,10.7, 0.9
2024/02/14 07:50:00,10.7, 1.0
2024/02/14 08:00:00,10.7, 1.0
2024/02/14 08:10:00,10.8, 1.2
2024/02/14 08:20:00,10.7, 1.4
2024/02/14 08:30:00,10.7, 1.3
2024/02/14 08:40:00,10.8, 1.7
2024/02/14 08:50:00,10.9, 1.9
2024/02/14 09:00:00,10.8, 1.9
2024/02/14 09:10:00,10.8, 2.1
2024/02/14 09:20:00,10.9, 2.5
2024/02/14 09:30:00,10.9, 2.8
2024/02/14 09:40:00,10.7, 3.2
2024/02/14 09:50:00,10.5, 3.3
2024/02/14 10:00:00,10.7, 3.7
2024/02/14 10:10:00,10.6, 3.8
2024/02/14 10:20:00,10.5, 4.1
2024/02/14 10:30:00,10.4, 4.6
2024/02/14 10:40:00,10.5, 5.0
2024/02/14 10:50:00,10.6, 5.9
2024/02/14 11:00:00,10.4, 6.3
2024/02/14 11:10:00,10.3, 6.3
2024/02/14 11:20:00,10.3, 6.5
2024/02/14 11:30:00,10.0, 6.9
2024/02/14 11:40:00,10.3, 7.1
2024/02/14 11:50:00,10.3, 7.7
2024/02/14 12:00:00,10.3, 7.3
2024/02/14 12:10:00,10.4, 8.1
2024/02/14 12:20:00,10.7, 7.7
2024/02/14 12:30:00,10.6, 8.3
2024/02/14 12:40:00,10.3, 8.1
2024/02/14 12:50:00,10.3, 7.6
2024/02/14 13:00:00, 9.8, 7.7
2024/02/14 13:10:00, 9.7, 7.7
